FW4399 Weather Reports


Display with metric or nautical units.
time (UTC)temp
F
wind
direction
speed
MPH
gust
MPH
rain 1hr
in
rain 24hr
in
rain mn
in
humidity
%
barometer
mb
20260510173032 51 53 9.0 0.0 0.00 0.00 0.00 56 1011.6
20260510171531 52 46 7.0 0.0 0.00 0.00 0.00 55 1011.8
20260510170030 54 56 9.0 0.0 0.00 0.00 0.00 52 1012.1
20260510164530 52 52 10.0 0.0 0.00 0.00 0.00 54 1012.2
20260510163029 54 86 11.0 0.0 0.00 0.00 0.00 54 1012.4
20260510161528 53 45 9.0 0.0 0.00 0.00 0.00 54 1012.6
20260510160028 56 54 11.0 0.0 0.00 0.00 0.00 52 1012.9
20260510154527 56 40 11.0 0.0 0.00 0.00 0.00 54 1013.0
20260510153028 56 38 11.0 0.0 0.00 0.00 0.00 51 1013.1
20260510151526 58 56 10.0 0.0 0.00 0.00 0.00 50 1013.1
20260510150024 58 27 11.0 0.0 0.00 0.00 0.00 54 1013.3
20260510144533 56 28 9.0 0.0 0.00 0.00 0.00 54 1013.4
20260510143030 57 40 11.0 0.0 0.00 0.00 0.00 53 1013.5
20260510141532 56 62 11.0 0.0 0.00 0.00 0.00 55 1013.6
20260510140027 57 39 11.0 0.0 0.00 0.00 0.00 55 1013.6
20260510134520 57 61 10.0 0.0 0.00 0.00 0.00 51 1013.7
20260510133030 56 48 12.0 0.0 0.00 0.00 0.00 55 1013.9
20260510131517 57 57 12.0 0.0 0.00 0.00 0.00 56 1014.0
20260510130017 57 37 10.0 0.0 0.00 0.00 0.00 55 1014.1
20260510124518 57 51 10.0 0.0 0.00 0.00 0.00 54 1014.3
20260510123016 58 24 10.0 0.0 0.00 0.00 0.00 54 1014.4
20260510121513 58 28 12.0 0.0 0.00 0.00 0.00 55 1014.6
20260510120012 58 53 12.0 0.0 0.00 0.00 0.00 55 1014.7
20260510114510 55 45 11.0 0.0 0.00 0.00 0.00 59 1014.8
20260510113012 56 73 12.0 0.0 0.00 0.00 0.00 60 1015.1
20260510111505 53 12 10.0 0.0 0.00 0.00 0.00 63 1015.1
20260510110005 52 46 10.0 0.0 0.00 0.00 0.00 63 1015.2
20260510104506 53 31 11.0 0.0 0.00 0.00 0.00 63 1015.2
20260510103003 53 44 9.0 0.0 0.00 0.00 0.00 63 1015.2
20260510101503 54 45 11.0 0.0 0.00 0.00 0.00 61 1015.3
20260510100059 52 41 11.0 0.0 0.00 0.00 0.00 66 1015.3
20260510094557 52 53 10.0 0.0 0.00 0.00 0.00 67 1015.6
20260510093106 51 17 9.0 0.0 0.00 0.00 0.00 68 1015.7
20260510091556 51 2 10.0 0.0 0.00 0.00 0.00 68 1015.7
20260510090052 50 14 10.0 0.0 0.00 0.00 0.00 68 1015.7
20260510084553 50 19 10.0 0.0 0.00 0.00 0.00 70 1015.7
20260510083052 51 1 8.0 0.0 0.00 0.00 0.00 70 1015.7
20260510081609 50 44 9.0 0.0 0.00 0.00 0.00 70 1015.6
20260510080048 50 13 10.0 0.0 0.00 0.00 0.00 71 1015.5
20260510074541 50 15 10.0 0.0 0.00 0.00 0.00 74 1015.4
20260510073051 50 1 9.0 0.0 0.00 0.00 0.00 76 1015.3
20260510071536 49 17 9.0 0.0 0.00 0.00 0.00 76 1015.2
20260510070037 49 0 9.0 0.0 0.00 0.00 0.00 76 1015.2
20260510064547 49 8 10.0 0.0 0.00 0.00 0.00 76 1015.2
20260510063040 49 8 9.0 0.0 0.00 0.00 0.00 75 1015.2
20260510061534 48 13 10.0 0.0 0.00 0.00 0.00 76 1015.0
20260510060040 48 354 10.0 0.0 0.00 0.00 0.00 77 1015.0
20260510054527 48 32 9.0 0.0 0.00 0.00 0.00 78 1014.9
20260510053036 48 3 10.0 0.0 0.00 0.00 0.00 79 1014.7
20260510051523 48 30 12.0 0.0 0.00 0.00 0.00 80 1014.7
20260510050017 48 358 10.0 0.0 0.00 0.00 0.00 81 1014.7
20260510044533 48 19 10.0 0.0 0.00 0.00 0.00 81 1014.8
20260510043011 48 359 11.0 0.0 0.00 0.00 0.00 82 1014.7
20260510041509 48 1 10.0 0.0 0.00 0.00 0.00 82 1014.8
20260510040005 48 13 11.0 0.0 0.00 0.00 0.00 82 1014.9
20260510034503 48 354 10.0 0.0 0.00 0.00 0.00 82 1015.1
20260510033112 49 4 9.0 0.0 0.00 0.00 0.00 83 1015.2
20260510031555 49 13 9.0 0.0 0.00 0.00 0.00 84 1015.2
20260510030110 49 10 7.0 0.0 0.00 0.00 0.00 85 1015.2
20260510024551 49 342 8.0 0.0 0.00 0.00 0.00 85 1015.3
20260510023048 49 0 6.0 0.0 0.00 0.00 0.00 85 1015.3
20260510021548 49 22 7.0 0.0 0.00 0.00 0.00 85 1015.2
20260510020046 49 359 6.0 0.0 0.00 0.00 0.00 85 1015.2
20260510014545 49 349 4.0 0.0 0.00 0.00 0.00 86 1015.3
20260510013044 49 30 6.0 0.0 0.00 0.00 0.00 85 1015.2
20260510011544 49 34 6.0 0.0 0.00 0.00 0.00 85 1015.2
20260510010042 49 352 6.0 0.0 0.00 0.00 0.00 86 1015.2
20260510004542 49 29 6.0 0.0 0.00 0.00 0.00 87 1015.3
20260510003049 49 6 6.0 0.0 0.00 0.00 0.00 86 1015.2
20260510001539 49 2 7.0 0.0 0.00 0.00 0.00 86 1015.6
20260510000044 49 1 5.0 0.0 0.00 0.00 0.00 86 1015.7
20260509234550 49 22 5.0 0.0 0.00 0.00 0.00 86 1015.7
20260509233033 49 345 7.0 0.0 0.00 0.00 0.00 87 1015.7
20260509231532 49 359 6.0 0.0 0.00 0.00 0.00 87 1015.6
20260509230026 49 353 4.0 0.0 0.00 0.00 0.00 87 1015.6
20260509224526 48 0 5.0 0.0 0.00 0.00 0.00 87 1015.4
20260509223026 48 25 6.0 0.0 0.00 0.00 0.00 87 1015.2
20260509221531 48 5 5.0 0.0 0.00 0.00 0.00 88 1015.2
20260509220025 48 359 4.0 0.0 0.00 0.00 0.00 87 1015.2
20260509214524 48 359 4.0 0.0 0.00 0.00 0.00 86 1015.2
20260509213006 49 16 6.0 0.0 0.00 0.00 0.00 85 1015.2
20260509211646 49 6 5.0 0.0 0.00 0.00 0.00 84 1015.2
20260509210134 49 352 6.0 0.0 0.00 0.00 0.00 82 1015.2
20260509204632 50 351 6.0 0.0 0.00 0.00 0.00 81 1015.2
20260509203014 50 16 7.0 0.0 0.00 0.00 0.00 78 1015.1
20260509201555 51 359 8.0 0.0 0.00 0.00 0.00 76 1015.1
20260509200030 52 35 9.0 0.0 0.00 0.00 0.00 74 1014.9
20260509194633 53 22 6.0 0.0 0.00 0.00 0.00 68 1014.7
20260509193035 54 21 6.0 0.0 0.00 0.00 0.00 66 1014.6
20260509191528 54 20 7.0 0.0 0.00 0.00 0.00 66 1014.4
20260509190029 55 29 8.0 0.0 0.00 0.00 0.00 65 1014.2
20260509184604 55 37 9.0 0.0 0.00 0.00 0.00 63 1014.2
20260509183127 56 27 9.0 0.0 0.00 0.00 0.00 59 1014.2
20260509181630 57 32 8.0 0.0 0.00 0.00 0.00 58 1014.1
20260509180131 59 1 9.0 0.0 0.00 0.00 0.00 53 1014.1
20260509174621 60 58 8.0 0.0 0.00 0.00 0.00 45 1013.8